Location: Asheville, NC
(35.6000°N, 82.5500°W)
Time: 16:40:08
(UTC-05:00)

Vanguard 1 - Pass Details

Date: 16 December 2017
Orbit: 649 x 3834 km, 34.3° (Epoch: 18 January)

Event Time Altitude Azimuth Distance (km) Brightness Sun altitude
Rises 06:28:37 0° 212° (SSW) 7,446 14.4 -12.8°
Reaches altitude 10° 06:33:52 10° 206° (SSW) 6,673 14.2 -11.8°
Maximum altitude 06:54:35 43° 143° (SE) 4,659 14.0 -7.9°
Drops below altitude 10° 07:12:24 10° 81° (E) 5,873 15.0 -4.6°
Sets 07:16:33 0° 75° (ENE) 6,532 15.1 -3.8°
